Huntingburg, IN

12:19 AM EDT on March 27, 2017 (GMT -0400)
Huntingburg

Weather History for KHNB - May, 2014

Change the Weather History Date:

Tuesday, May 13, 2014

  Actual Average Record
Temperature  
Mean Temperature 71 °F -  
Max Temperature 82 °F 72 °F 87 °F (2005)
Min Temperature 60 °F 53 °F 37 °F (2013)
Cooling Degree Days 6    
Growing Degree Days 21 (Base 50)    
Moisture  
Dew Point 64 °F    
Average Humidity 75    
Maximum Humidity 88    
Minimum Humidity 58    
Precipitation  
Precipitation 0.48 in - - ()
Sea Level Pressure  
Sea Level Pressure 30.03 in    
Wind  
Wind Speed 8 mph (WSW)    
Max Wind Speed 23 mph    
Max Gust Speed 28 mph    
Visibility 10 miles    
Events Thunderstorm    
Averages and records for this station are not official NWS values.
T = Trace of Precipitation, MM = Missing Value Source: NWS Daily Summary

Daily Weather History Graph

Daily Weather History Graph

Search for Another Location

Airport or City:

Trip Planner

Search our weather history database for the weather conditions in past years. The results will help you decide how hot, cold, wet, or windy it might be!

Date:

Astronomy

May. 13, 2014 Rise Set
Actual Time 6:38 AM EDT 8:50 PM EDT
Civil Twilight 6:09 AM EDT 9:19 PM EDT
Nautical Twilight 5:33 AM EDT 9:56 PM EDT
Astronomical Twilight 4:53 AM EDT 10:35 PM EDT
Moon 7:52 PM EDT (5/13) 5:53 AM EDT (5/13)
Length of Visible Light 15h 10m
Length of Day
14h 11m
Waxing Gibbous, 98% of the Moon is Illuminated
May 13
Waxing Gibbous
May 14
Full
May 21
Last Quarter
May 28
New
Jun 5
First Quarter

Hourly Weather History & Observations

Time (EDT) Temp. Heat Index Dew Point Humidity Pressure Visibility Wind Dir Wind Speed Gust Speed Precip Events Conditions
12:15 AM 71.6 °F - 64.4 °F 78% 30.02 in 10.0 mi South 4.6 mph - N/A   Clear
12:35 AM 71.6 °F - 64.4 °F 78% 30.01 in 10.0 mi South 4.6 mph - N/A   Clear
12:55 AM 71.6 °F - 64.4 °F 78% 30.02 in 10.0 mi SSE 5.8 mph - N/A   Clear
1:15 AM 71.6 °F - 64.4 °F 78% 30.02 in 6.0 mi South 3.5 mph - N/A   Clear
1:35 AM 71.6 °F - 64.4 °F 78% 30.02 in 10.0 mi South 5.8 mph - N/A   Clear
2:15 AM 71.6 °F - 64.4 °F 78% 30.00 in 10.0 mi South 4.6 mph - N/A   Clear
2:35 AM 71.6 °F - 64.4 °F 78% 30.00 in 10.0 mi South 5.8 mph - N/A   Clear
2:55 AM 71.6 °F - 64.4 °F 78% 30.00 in 10.0 mi South 5.8 mph - N/A   Clear
3:35 AM 71.6 °F - 64.4 °F 78% 29.99 in 10.0 mi South 6.9 mph - N/A   Clear
3:55 AM 71.6 °F - 64.4 °F 78% 29.99 in 10.0 mi South 6.9 mph - N/A   Clear
4:15 AM 71.6 °F - 64.4 °F 78% 29.98 in 10.0 mi South 5.8 mph - N/A   Clear
4:35 AM 71.6 °F - 64.4 °F 78% 29.99 in 10.0 mi SSW 9.2 mph - N/A   Clear
4:55 AM 71.6 °F - 64.4 °F 78% 29.98 in 10.0 mi South 6.9 mph - N/A   Clear
5:15 AM 71.6 °F - 64.4 °F 78% 29.98 in 10.0 mi SSW 9.2 mph - N/A   Clear
5:35 AM 69.8 °F - 64.4 °F 83% 29.99 in 10.0 mi SSW 9.2 mph - N/A   Clear
5:55 AM 69.8 °F - 64.4 °F 83% 29.99 in 10.0 mi SSW 8.1 mph - N/A   Clear
6:15 AM 69.8 °F - 64.4 °F 83% 29.99 in 10.0 mi SSW 6.9 mph - N/A   Clear
6:35 AM 69.8 °F - 64.4 °F 83% 29.99 in 10.0 mi South 5.8 mph - N/A   Clear
6:55 AM 69.8 °F - 64.4 °F 83% 29.99 in 10.0 mi South 6.9 mph - N/A   Clear
7:15 AM 69.8 °F - 64.4 °F 83% 30.00 in 10.0 mi SSW 5.8 mph - N/A   Clear
7:35 AM 69.8 °F - 64.4 °F 83% 30.01 in 10.0 mi SSW 10.4 mph - N/A   Partly Cloudy
7:55 AM 71.6 °F - 64.4 °F 78% 30.02 in 10.0 mi SSW 10.4 mph - N/A   Partly Cloudy
8:15 AM 71.6 °F - 64.4 °F 78% 30.02 in 10.0 mi SSW 9.2 mph - N/A   Clear
9:15 AM 73.4 °F - 66.2 °F 78% 30.02 in 10.0 mi SSW 12.7 mph - N/A   Clear
9:35 AM 75.2 °F - 66.2 °F 73% 30.02 in 10.0 mi SW 10.4 mph 18.4 mph N/A   Partly Cloudy
9:55 AM 75.2 °F - 66.2 °F 73% 30.03 in 10.0 mi SSW 19.6 mph 24.2 mph N/A   Scattered Clouds
10:15 AM 77.0 °F - 68.0 °F 74% 30.03 in 10.0 mi SW 15.0 mph 21.9 mph N/A   Partly Cloudy
10:55 AM 77.0 °F - 66.2 °F 69% 30.04 in 10.0 mi SW 18.4 mph 25.3 mph N/A   Clear
12:35 PM 80.6 °F 82.7 °F 66.2 °F 61% 30.03 in 10.0 mi SW 23.0 mph 27.6 mph N/A   Mostly Cloudy
12:55 PM 80.6 °F 82.7 °F 66.2 °F 61% 30.04 in 10.0 mi SW 18.4 mph 26.5 mph N/A   Mostly Cloudy
1:35 PM 75.2 °F - 66.2 °F 73% 30.05 in 10.0 mi WNW 12.7 mph 21.9 mph N/A   Mostly Cloudy
1:55 PM 77.0 °F - 66.2 °F 69% 30.05 in 10.0 mi West 11.5 mph - N/A   Partly Cloudy
2:15 PM 78.8 °F - 66.2 °F 65% 30.05 in 10.0 mi WNW 11.5 mph - N/A   Clear
2:35 PM 78.8 °F - 68.0 °F 69% 30.04 in 10.0 mi WSW 10.4 mph - N/A   Clear
2:55 PM 78.8 °F - 66.2 °F 65% 30.04 in 10.0 mi WNW 8.1 mph 18.4 mph N/A   Scattered Clouds
3:15 PM 75.2 °F - 66.2 °F 73% 30.04 in 10.0 mi West 8.1 mph - N/A   Partly Cloudy
3:35 PM 78.8 °F - 66.2 °F 65% 30.03 in 10.0 mi WSW 6.9 mph - N/A   Clear
3:55 PM 80.6 °F 83.2 °F 68.0 °F 65% 30.02 in 10.0 mi WSW 9.2 mph - N/A   Partly Cloudy
4:15 PM 80.6 °F 83.2 °F 68.0 °F 65% 30.01 in 10.0 mi WSW 10.4 mph - N/A   Clear
4:35 PM 80.6 °F 83.2 °F 68.0 °F 65% 30.00 in 10.0 mi West 10.4 mph 16.1 mph N/A   Scattered Clouds
4:55 PM 82.4 °F 85.4 °F 68.0 °F 62% 30.00 in 10.0 mi WNW 10.4 mph - N/A   Partly Cloudy
5:15 PM 82.4 °F 85.4 °F 68.0 °F 62% 29.99 in 10.0 mi West 9.2 mph - N/A   Partly Cloudy
5:35 PM 82.4 °F 84.6 °F 66.2 °F 58% 29.99 in 10.0 mi WSW 8.1 mph - N/A   Partly Cloudy
5:55 PM 80.6 °F 82.7 °F 66.2 °F 61% 29.99 in 10.0 mi West 10.4 mph - N/A   Scattered Clouds
6:15 PM 78.8 °F - 66.2 °F 65% 29.99 in 10.0 mi WSW 13.8 mph - 0.02 in Thunderstorm Thunderstorm
6:35 PM 69.8 °F - 62.6 °F 78% 30.02 in 8.0 mi WNW 4.6 mph - 0.13 in Thunderstorm Thunderstorm
6:55 PM 69.8 °F - 64.4 °F 83% 30.02 in 10.0 mi North 5.8 mph - 0.13 in Thunderstorm Scattered Clouds
7:15 PM 69.8 °F - 64.4 °F 83% 30.03 in 10.0 mi NW 5.8 mph - N/A   Partly Cloudy
7:35 PM 69.8 °F - 64.4 °F 83% 30.04 in 9.0 mi NNW 13.8 mph 18.4 mph 0.05 in   Mostly Cloudy
7:55 PM 66.2 °F - 62.6 °F 88% 30.07 in 3.0 mi NNW 11.5 mph - 0.34 in Thunderstorm Thunderstorm
8:35 PM 66.2 °F - 60.8 °F 83% 30.08 in 10.0 mi North 9.2 mph - 0.01 in   Mostly Cloudy
8:55 PM 66.2 °F - 60.8 °F 83% 30.08 in 10.0 mi North 10.4 mph - 0.01 in   Overcast
9:15 PM 64.4 °F - 57.2 °F 77% 30.08 in 10.0 mi NNE 9.2 mph - N/A   Mostly Cloudy
9:35 PM 64.4 °F - 57.2 °F 77% 30.09 in 10.0 mi North 8.1 mph - N/A   Partly Cloudy
9:55 PM 64.4 °F - 57.2 °F 77% 30.10 in 10.0 mi North 9.2 mph - N/A   Mostly Cloudy
10:15 PM 64.4 °F - 57.2 °F 77% 30.11 in 10.0 mi North 5.8 mph - N/A   Overcast
10:55 PM 62.6 °F - 55.4 °F 77% 30.12 in 10.0 mi North 10.4 mph 16.1 mph N/A   Overcast
11:15 PM 60.8 °F - 55.4 °F 82% 30.13 in 10.0 mi NNE 8.1 mph - N/A   Partly Cloudy
11:35 PM 60.8 °F - 55.4 °F 82% 30.13 in 10.0 mi NNE 8.1 mph - N/A   Scattered Clouds
11:55 PM 60.8 °F - 53.6 °F 77% 30.13 in 10.0 mi NNE 9.2 mph - N/A   Scattered Clouds